Terug naar catalogus

NATO 2B

ActiefMilitairGEO
NORAD 4902·PAYLOAD· XX

Gelanceerd Feb 3, 1971 vanaf Cape Canaveral Space Force Station

Loading…

TLE

VersSource: Space-Track

Epoch: Sep 14, 2026, 13:18 UTC

1 04902U 71009A   26257.55434413 -.00000098  00000-0  00000-0 0  9991
2 04902   0.9452 239.3101 0003363 278.6634 290.3500  1.00271471119538

Volg NATO 2B in realtime met AllMySat

Download on the App Store